GEFSNE_con_prob3kmehi_228.txt.gz
EHI
7 6 6 6 6 4 3 4 6 6 4 2 1 1 0 0 0 0 0 0 0 0 0 0 0 0 0 0 0 0 1 2 2 1 0 0 0 0
8 6 4 4 4 4 3 4 6 7 5 3 2 2 1 0 0 0 0 0 0 0 0 0 0 0 0 0 0 0 0 1 1 0 0 0 0 0
7 5 4 4 4 4 4 5 6 6 6 5 4 3 1 0 0 1 0 0 0 0 0 0 0 0 0 0 0 0 0 0 0 0 0 0 0 0
7 6 5 6 5 5 5 5 5 5 5 4 3 3 1 0 1 2 1 0 0 0 0 0 0 0 0 0 0 0 0 0 0 0 0 0 0 0
8 7 8 8 6 5 5 4 4 4 4 3 2 3 2 1 1 1 1 1 0 0 0 0 0 0 0 0 0 0 0 0 0 0 0 0 0 0
8 7 8 9 7 6 5 4 4 3 4 3 3 3 3 2 1 1 1 1 1 0 0 0 0 0 0 0 0 0 0 0 0 0 0 0 0 0
7 7 7 7 7 6 5 4 3 3 3 2 3 3 2 1 1 2 2 2 1 0 0 0 0 0 0 0 0 0 0 0 0 0 0 0 0 0
6 7 7 6 4 4 3 2 2 3 2 1 2 1 1 0 0 1 2 1 1 0 0 0 0 0 0 0 0 0 0 0 0 0 0 0 0 0
6 7 8 6 3 3 2 2 2 1 1 1 1 0 0 0 0 0 0 0 0 0 0 0 0 0 0 0 0 0 0 0 0 0 0 0 0 0
7 8 9 7 4 3 5 5 3 2 1 0 0 0 0 0 0 0 0 0 0 0 0 0 0 0 0 0 0 0 0 0 0 0 0 0 0 0
6 7 7 5 3 3 6 7 5 3 2 1 0 0 0 0 0 0 0 0 0 0 0 0 0 0 0 0 0 0 0 0 0 0 0 0 0 0
4 4 3 2 1 2 5 7 6 5 3 2 1 1 1 0 0 0 0 0 0 0 0 0 0 0 0 0 0 0 0 0 0 0 0 0 0 0
3 2 1 0 0 2 4 5 6 6 5 3 2 2 1 0 0 0 0 0 0 0 0 0 0 0 0 0 0 0 0 0 0 0 0 0 0 0
3 2 1 0 0 1 1 3 4 5 5 4 3 3 2 1 0 0 0 0 0 1 0 0 0 0 0 0 0 0 0 0 0 0 0 0 0 0
3 2 1 0 0 0 0 1 3 4 6 7 6 5 4 3 2 1 0 0 0 0 0 0 0 0 0 0 0 0 0 0 0 0 0 0 0 0
1 1 0 0 0 0 0 1 3 5 7 9 9 8 6 5 4 2 2 1 0 0 0 0 0 0 0 0 0 0 0 0 0 0 0 0 0 0
0 0 0 0 0 0 1 2 4 5 7 9 10 9 7 6 4 3 2 1 0 0 0 0 0 0 0 0 0 0 0 0 0 0 0 0 0 0
0 0 0 0 0 0 1 3 4 5 6 7 8 8 7 4 2 1 1 1 0 0 0 1 1 0 0 0 0 0 0 0 0 0 0 0 0 0
0 0 0 1 1 1 2 3 3 4 6 5 5 5 5 4 2 0 0 0 0 0 0 1 1 0 0 0 0 0 0 0 0 0 0 0 0 0
0 0 1 2 2 1 1 3 4 5 5 4 2 1 3 3 2 1 0 0 0 0 0 1 1 0 0 0 0 0 0 0 0 0 0 0 0 0
0 0 1 2 2 1 1 4 6 6 6 5 2 1 1 2 2 1 0 0 0 0 0 0 0 0 0 0 0 0 0 0 0 0 0 0 0 0
0 0 1 1 1 0 2 4 6 6 6 5 3 1 1 1 1 1 1 1 0 0 0 0 1 0 0 0 0 0 0 0 0 0 0 0 0 0
0 0 0 0 0 1 2 4 4 5 5 4 2 1 0 0 1 2 2 2 1 0 0 0 1 0 0 0 0 0 0 0 0 0 0 0 0 0

GEFSNE_con_prob3kmehi_234.txt.gz
EHI
7 8 7 5 4 6 11 12 10 6 4 4 4 6 8 9 6 5 6 4 1 0 0 0 0 0 0 0 0 0 0 0 0 0 0 1 3 5
9 9 8 5 5 6 8 10 9 6 4 3 4 6 9 7 5 7 7 4 2 0 0 0 0 0 0 0 0 0 0 0 0 0 0 0 2 3
9 10 9 8 8 8 8 8 8 8 5 3 3 7 9 7 6 9 9 5 3 1 0 0 0 0 0 0 0 0 0 0 0 0 0 0 0 1
11 11 11 11 13 14 13 11 10 10 9 5 4 6 8 7 6 9 9 5 4 3 1 0 0 0 0 0 0 0 0 0 0 0 0 0 0 0
14 13 12 14 17 20 19 17 13 13 12 8 6 6 6 5 5 6 5 4 4 3 2 1 1 0 0 0 0 0 0 0 0 0 0 0 0 0
18 17 16 16 18 20 21 19 17 16 15 11 8 7 7 7 6 4 3 4 4 4 4 3 2 1 0 0 0 0 0 0 0 0 0 0 0 0
24 23 21 18 15 15 14 15 18 20 20 16 11 8 9 11 8 5 4 4 5 5 5 4 3 2 2 2 1 0 0 0 0 0 0 0 0 0
27 25 22 18 13 10 7 7 11 17 21 19 15 11 13 14 12 9 7 7 6 6 5 4 3 4 4 3 1 0 0 0 0 0 0 0 0 0
26 24 20 18 16 13 9 5 6 8 13 18 17 15 16 17 16 13 12 11 10 9 8 6 5 5 4 3 1 0 0 0 0 0 0 0 0 0
23 22 21 20 18 16 13 9 7 6 7 9 13 13 13 14 15 15 14 14 14 14 13 10 7 6 5 2 1 0 0 0 0 0 0 0 0 0
19 19 20 19 13 10 12 11 10 9 5 3 5 6 7 8 10 12 14 14 14 15 15 13 10 7 6 4 2 1 0 0 0 0 0 0 0 0
16 16 15 12 6 4 8 10 9 8 7 5 4 4 5 7 7 10 14 16 15 14 15 14 11 8 7 6 4 2 1 0 0 0 0 0 0 0
15 14 11 5 1 2 5 8 6 5 7 9 10 8 9 11 12 12 16 19 18 17 16 14 11 9 8 6 5 3 2 1 0 0 0 0 0 0
14 13 9 3 0 0 2 3 2 2 5 9 11 10 10 13 15 16 16 17 17 16 16 14 11 9 7 5 5 5 3 1 0 0 0 0 0 0
10 8 5 2 0 0 0 0 0 1 3 6 9 10 9 10 13 16 15 13 12 12 12 11 10 9 7 6 6 6 4 3 1 0 0 0 0 0
4 3 2 1 0 1 1 0 0 2 3 5 8 9 8 9 11 13 12 10 9 9 10 9 9 9 9 8 8 6 6 5 3 1 0 0 0 0
1 2 2 1 1 2 2 1 1 2 3 4 6 7 6 7 9 10 11 11 10 10 11 10 9 10 10 10 10 8 8 7 5 3 1 0 0 0
2 3 3 3 3 4 4 3 3 3 3 3 4 4 4 5 6 9 11 11 10 9 10 11 11 10 9 9 8 8 8 8 7 5 3 1 0 0
1 2 2 4 5 5 5 5 4 4 3 3 3 3 3 3 5 7 9 9 8 7 9 11 12 10 8 6 5 5 6 7 8 7 5 2 0 0
0 0 1 3 5 4 4 4 3 3 3 3 3 3 3 3 4 5 7 7 6 6 8 9 9 8 7 4 3 3 3 4 6 7 5 2 0 0
0 0 1 2 2 2 1 1 1 1 3 3 3 3 3 3 3 4 6 6 6 6 6 6 7 7 7 4 2 2 2 2 3 5 5 2 0 0
0 0 0 1 1 0 0 0 0 1 2 3 3 3 3 3 3 4 5 6 6 5 4 5 7 8 7 5 3 2 3 3 1 2 2 1 0 0
0 0 1 1 1 0 0 0 0 1 2 3 3 3 3 3 3 3 4 5 5 5 4 5 7 9 8 6 4 3 3 3 2 1 0 0 0 0

GEFSNE_con_prob3kmehi_240.txt.gz
EHI
22 21 18 13 9 6 7 9 8 5 5 10 15 18 21 20 18 21 21 11 3 1 0 0 0 0 1 2 2 2 2 1 0 0 0 0 0 0
23 23 20 14 10 7 8 10 11 8 7 10 15 18 19 16 15 19 19 10 4 2 0 0 0 0 0 1 1 1 1 0 0 0 0 0 0 0
23 24 22 18 14 12 11 12 14 14 12 12 15 18 19 18 17 18 16 9 5 2 0 0 0 0 0 0 0 0 0 0 0 0 0 0 0 0
25 25 24 22 23 22 18 15 15 17 18 18 19 21 22 24 23 20 14 7 4 2 0 0 0 0 0 0 0 0 0 0 0 0 0 0 0 0
30 27 26 27 27 27 23 18 17 19 21 23 23 23 25 27 26 21 14 7 3 1 0 0 0 0 0 0 0 0 0 0 0 0 0 0 0 0
30 27 26 27 25 23 20 20 20 20 21 22 21 21 24 26 26 21 15 9 4 1 0 0 0 0 0 0 0 0 0 0 0 0 0 0 0 0
28 27 24 23 20 16 14 16 18 19 19 19 18 19 21 23 24 20 14 10 6 2 1 1 1 1 1 0 0 0 0 0 0 0 0 0 0 0
30 28 24 20 15 12 11 10 11 12 13 14 15 16 18 20 21 18 13 10 8 5 3 2 3 4 3 1 0 0 0 0 0 0 0 0 0 0
31 29 25 21 16 13 11 9 9 8 7 8 10 12 14 16 17 15 12 11 10 8 5 4 4 6 5 2 0 0 0 0 0 0 0 0 0 0
24 24 23 21 17 14 12 13 14 11 6 4 5 6 9 11 10 9 9 10 10 9 7 5 4 4 4 2 0 0 0 0 0 0 0 0 0 0
17 16 16 16 14 13 13 14 16 14 8 3 2 2 3 4 4 4 5 7 8 8 9 7 5 4 4 2 0 0 0 0 0 0 0 0 0 0
15 12 10 9 8 8 10 13 14 13 9 5 2 1 1 1 2 3 4 5 6 8 9 9 7 6 4 2 1 0 0 0 0 0 0 0 0 0
14 12 9 5 3 3 5 9 10 9 8 6 3 2 2 2 3 5 7 8 9 10 10 10 9 7 4 3 2 1 0 0 0 0 0 0 0 0
12 10 7 2 0 0 2 4 5 5 6 6 4 3 3 3 5 7 9 11 11 11 10 10 9 7 5 3 3 2 1 0 0 0 0 0 0 0
8 5 2 1 0 0 0 1 1 3 5 5 3 2 3 4 5 7 10 11 12 11 10 11 10 8 6 4 3 2 1 0 0 0 0 0 0 0
3 2 1 1 0 0 0 0 1 3 4 3 2 2 3 3 4 6 8 9 10 10 10 10 10 9 9 7 5 3 1 0 0 0 0 0 0 0
2 3 3 2 1 0 1 1 1 2 3 2 1 2 3 3 3 5 6 7 8 9 9 9 9 10 10 8 5 3 2 0 0 1 0 0 0 0
1 2 3 3 2 1 2 2 2 3 4 3 2 2 4 4 4 4 5 6 6 7 8 9 9 9 8 6 4 2 1 0 0 0 0 0 0 0
1 1 1 3 4 4 3 2 2 4 5 4 3 3 4 4 4 3 4 4 4 5 7 8 9 9 7 5 3 1 0 0 0 0 0 0 0 0
2 1 0 2 4 4 3 2 2 2 3 3 3 4 5 5 3 2 2 3 3 4 5 6 8 9 8 6 3 1 0 0 0 0 1 1 0 0
2 1 0 0 2 3 4 3 2 1 1 1 2 4 6 5 2 1 1 1 2 3 3 4 5 7 8 7 4 1 0 0 0 0 1 1 0 0
1 0 0 0 1 3 5 4 3 2 0 0 1 2 4 3 1 0 0 0 1 2 2 3 4 5 7 7 5 3 1 0 0 0 1 1 0 0
0 0 0 0 1 4 6 5 3 1 0 0 1 1 1 1 0 0 0 0 1 2 3 3 4 5 6 6 6 5 2 1 0 0 0 0 0 0

GEFSNE_con_prob3kmehi_246.txt.gz
EHI
3 3 3 2 1 1 2 2 2 2 1 0 0 0 0 0 0 0 0 0 0 0 0 0 0 0 0 0 0 0 0 0 0 1 2 2 1 0
1 2 2 1 1 1 1 2 3 3 2 1 0 0 0 0 0 0 0 0 0 0 0 0 0 0 0 0 0 0 0 0 0 0 1 1 0 0
1 1 0 0 0 0 0 2 4 4 3 1 0 0 0 0 0 0 0 0 0 0 0 0 0 0 0 0 0 0 0 0 0 0 0 0 0 0
2 1 1 0 0 0 1 2 4 5 4 2 2 1 1 1 1 1 0 0 0 0 0 0 0 0 0 0 0 0 0 0 0 0 0 0 0 0
3 3 3 2 1 2 3 3 3 4 4 3 3 3 2 2 2 2 1 0 0 0 0 0 0 0 0 0 0 0 0 0 0 0 0 0 0 0
5 5 4 4 4 4 5 4 4 4 4 3 3 3 3 2 3 3 2 1 0 0 0 0 0 0 0 0 0 0 0 0 0 0 0 0 0 0
6 6 6 6 6 5 5 5 5 6 5 4 4 4 3 3 2 2 2 1 0 0 0 0 0 0 0 0 0 0 0 0 0 0 0 0 0 0
6 5 5 5 5 4 3 4 4 5 6 6 6 5 4 3 1 1 1 0 0 0 0 0 0 0 0 0 0 0 0 0 0 0 0 0 0 0
4 4 3 4 4 3 3 2 2 3 4 6 7 5 4 2 1 0 0 0 0 0 0 0 0 0 0 0 0 0 0 0 0 0 0 0 0 0
4 4 4 4 3 3 3 3 2 1 1 3 3 3 3 2 1 0 0 0 0 0 0 0 0 0 0 0 0 0 0 0 0 0 0 0 0 0
4 4 5 4 2 2 2 2 2 1 0 0 1 1 2 1 0 0 0 0 0 0 0 0 0 0 0 0 0 0 0 0 0 0 0 0 0 0
2 3 3 2 1 1 1 1 1 0 0 0 0 0 0 0 0 0 0 0 0 0 0 0 0 0 0 0 0 0 0 0 0 0 0 0 0 0
2 2 1 0 0 0 0 0 0 0 0 0 0 0 0 0 0 0 0 0 0 0 0 0 0 0 0 0 0 0 0 0 0 0 0 0 0 0
2 1 0 0 0 0 0 0 0 0 0 0 0 0 0 0 1 0 0 0 0 0 0 0 0 1 2 1 0 0 0 0 0 0 0 0 0 0
1 0 0 0 0 0 0 0 0 0 0 0 0 0 0 0 0 0 0 0 0 0 0 0 1 2 3 2 1 0 0 0 0 0 0 0 0 0
0 0 0 0 0 0 0 0 0 1 0 0 0 0 0 0 0 0 0 0 0 0 0 0 2 3 3 3 1 0 0 0 0 0 0 0 0 0
0 0 0 0 0 0 0 0 0 0 0 0 0 0 0 0 0 0 0 0 0 0 0 0 2 3 3 3 2 1 0 0 0 0 0 0 0 0
0 0 0 0 0 0 0 0 0 0 0 0 0 0 0 0 0 0 0 0 0 0 0 1 2 3 3 2 2 1 0 0 0 0 0 0 0 0
0 0 0 0 0 0 0 0 0 0 0 0 0 0 0 0 0 0 0 0 0 0 0 1 2 3 3 2 2 1 0 0 0 0 0 0 0 0
0 1 1 1 0 0 1 1 1 0 0 0 0 0 0 0 0 0 0 0 0 0 0 1 2 3 3 2 1 0 0 0 0 0 0 0 0 0
1 1 2 2 1 0 1 1 1 0 0 0 0 0 0 0 0 0 0 0 0 0 0 0 1 2 2 1 1 0 0 0 0 0 0 0 0 0
0 1 3 3 2 1 0 1 1 1 0 0 0 0 0 0 0 0 0 0 0 0 0 0 0 1 1 0 0 0 0 0 0 0 0 0 0 0
0 1 2 3 2 1 0 1 2 1 0 0 0 0 0 0 0 0 0 0 0 0 0 0 0 0 0 0 0 0 0 0 0 0 0 0 0 0

GEFSNE_con_prob3kmehi_252.txt.gz
EHI
0 0 0 0 0 0 0 0 0 0 0 0 0 0 0 0 0 1 0 0 0 0 0 0 0 0 0 0 0 0 0 0 0 0 0 0 0 0
2 1 1 0 0 0 0 0 1 1 1 0 0 0 0 0 1 1 1 0 0 0 0 0 0 0 0 0 0 0 0 0 0 0 0 0 0 0
6 3 1 0 0 0 0 0 2 2 2 1 1 1 1 1 1 2 1 0 0 0 0 0 0 0 0 0 0 0 0 0 0 0 0 0 0 0
9 6 3 1 1 1 1 1 2 2 2 1 1 2 2 2 1 1 1 1 0 0 0 0 0 0 0 0 0 0 0 0 0 0 0 0 0 0
10 7 4 2 2 2 2 3 3 4 4 4 2 3 3 3 2 2 2 1 0 0 0 0 0 0 0 0 0 0 0 0 0 0 0 0 0 0
10 8 4 2 2 2 3 4 6 6 6 6 4 4 4 3 3 3 2 1 0 0 0 0 0 0 0 0 0 0 0 0 0 0 0 0 0 0
10 7 3 1 1 1 1 3 4 5 5 5 5 5 5 4 3 3 2 1 0 0 0 0 0 0 0 0 0 0 0 0 0 0 0 0 0 0
10 7 3 1 0 0 1 1 2 3 3 3 3 4 4 4 3 3 2 1 0 0 0 0 0 0 0 0 0 0 0 0 0 0 0 0 0 0
7 5 3 2 0 0 1 0 0 1 1 1 1 1 2 2 2 3 2 1 0 0 0 0 0 0 0 0 0 0 0 0 0 0 0 0 0 0
4 3 2 1 0 0 0 0 1 1 0 0 0 0 0 1 1 1 1 1 0 0 0 0 0 0 0 0 0 0 0 0 0 0 0 0 0 0
4 2 1 0 0 0 0 1 1 1 0 0 0 0 0 0 0 0 0 0 0 0 0 0 0 0 0 0 0 0 0 0 0 0 0 0 0 0
4 3 1 0 0 0 0 1 1 1 0 0 0 0 0 0 0 0 0 0 0 0 0 0 0 0 0 0 0 0 0 0 0 0 0 0 0 0
5 3 2 0 0 0 0 0 0 0 0 0 0 0 0 0 0 0 0 0 0 0 0 0 0 0 0 0 0 0 0 0 0 0 0 0 0 0
5 3 1 0 0 0 0 0 0 0 0 0 0 0 0 0 0 0 0 0 0 0 0 0 0 0 0 1 1 0 0 0 0 0 0 0 0 0
4 3 1 0 0 0 0 0 0 0 0 0 0 0 0 0 0 0 0 0 0 0 0 0 0 0 0 1 2 1 0 0 0 0 0 0 0 0
3 1 0 0 0 0 0 0 0 0 0 1 1 0 0 0 0 0 0 0 0 0 0 0 1 1 0 1 1 1 0 0 0 0 0 0 0 0
2 1 0 0 0 0 0 0 0 0 1 2 2 1 0 0 0 0 0 0 0 0 0 0 1 1 0 0 1 1 0 0 0 0 0 0 0 0
2 1 0 0 0 0 0 0 0 0 1 2 3 2 1 0 0 0 0 0 0 0 0 0 1 1 0 0 0 1 0 0 0 0 0 0 0 0
2 1 0 0 0 0 0 0 0 0 0 1 2 3 2 1 0 0 0 0 0 0 0 0 0 0 0 0 0 0 0 0 0 0 0 0 0 0
3 2 1 0 0 0 0 0 0 0 0 0 1 2 2 1 0 0 0 0 0 0 0 0 0 0 0 0 0 0 0 0 0 0 0 0 0 0
2 2 1 0 0 0 0 0 0 0 0 0 0 1 1 0 0 0 0 0 0 0 0 0 0 0 0 0 0 0 0 0 0 0 0 0 0 0
1 1 0 0 0 0 0 0 0 0 0 0 0 0 0 0 0 0 0 0 0 0 0 0 0 0 0 0 0 0 0 0 0 0 0 0 0 0
0 0 0 0 0 0 0 0 0 0 0 0 0 0 0 0 0 0 0 0 0 0 0 0 0 0 0 0 0 0 0 0 0 0 0 0 0 0

GEFSNE_con_prob3kmehi_258.txt.gz
EHI
5 7 6 4 2 3 2 2 2 1 1 2 1 1 2 3 3 2 2 2 2 1 0 0 0 0 0 0 0 0 0 0 0 0 0 0 0 0
11 12 12 9 6 5 5 5 5 4 3 2 1 2 4 5 4 3 3 3 2 1 0 0 0 0 0 0 0 0 0 0 0 0 0 0 0 0
17 18 19 16 12 10 10 9 9 9 7 4 2 4 8 9 7 5 4 4 3 1 0 0 0 0 0 0 0 0 0 0 0 0 0 0 0 0
19 20 21 19 17 15 14 13 11 11 10 7 6 7 9 9 7 5 3 4 3 1 0 0 0 0 0 0 0 0 0 0 0 0 0 0 0 0
20 20 20 20 19 19 19 17 14 13 12 10 8 9 9 8 7 5 5 5 4 1 0 0 0 0 0 0 0 0 0 0 0 0 0 0 0 0
19 19 18 17 17 18 19 19 17 15 14 13 11 10 10 9 7 6 7 7 5 2 1 1 1 0 0 0 0 0 0 0 0 0 0 0 0 0
18 17 15 13 13 13 14 15 15 16 16 16 14 11 11 11 7 5 5 6 5 3 2 2 2 2 1 1 0 0 0 0 0 0 0 0 0 0
16 15 12 10 9 8 7 7 8 11 15 16 15 13 12 10 6 4 3 5 6 4 2 1 2 3 3 2 0 0 0 0 0 0 0 0 0 0
16 15 13 10 9 9 7 5 5 6 9 12 13 11 10 8 5 3 3 5 7 6 3 1 1 1 1 1 0 0 0 0 0 0 0 0 0 0
16 17 15 12 10 10 11 9 8 7 5 5 6 6 5 5 3 1 2 3 5 5 4 2 0 1 1 0 0 0 0 0 0 0 0 0 0 0
17 17 17 14 10 10 13 14 13 10 5 3 2 2 2 2 1 0 0 1 2 3 5 3 1 2 2 1 0 0 0 0 0 0 0 0 0 0
18 18 16 11 7 7 11 15 15 12 8 5 3 2 1 1 2 1 1 0 1 2 5 5 3 3 3 2 1 0 0 0 0 0 0 0 0 0
18 19 15 7 3 4 7 11 11 9 8 8 7 5 4 4 5 4 2 2 2 3 5 6 4 3 4 3 2 1 1 0 0 0 0 0 0 0
16 16 12 5 1 1 3 4 4 4 5 7 7 7 6 6 6 6 4 4 4 4 5 6 5 4 4 4 4 3 1 0 0 0 0 0 0 0
12 10 6 2 0 0 0 0 0 1 3 5 6 7 7 7 7 6 5 5 5 4 4 5 5 5 4 4 4 3 1 0 0 0 0 0 0 0
7 5 2 1 1 1 1 1 1 2 3 4 6 7 7 8 7 7 6 5 4 4 4 5 5 5 4 3 3 2 1 0 0 0 0 0 0 0
6 5 4 3 3 4 4 3 3 2 2 3 4 6 7 8 8 7 7 6 5 4 5 6 6 6 5 4 3 3 2 1 0 0 0 0 0 0
7 7 6 5 5 5 5 4 3 2 1 1 3 4 5 6 7 8 8 7 5 5 6 5 5 5 4 3 3 3 3 2 1 0 0 0 0 0
8 8 8 6 4 4 4 3 1 1 0 1 2 2 3 4 5 7 8 6 5 5 5 4 3 2 1 1 1 2 2 2 1 0 0 0 0 0
8 8 8 6 4 3 3 2 1 0 0 0 1 1 1 2 3 4 5 5 4 3 2 2 1 0 0 0 0 0 1 2 2 1 1 1 1 1
7 7 7 5 4 3 3 3 1 0 0 0 0 0 0 1 1 1 1 2 2 2 1 1 1 0 0 0 0 0 1 2 2 2 2 2 2 2
5 6 5 4 3 3 3 3 2 0 0 0 0 0 0 0 0 0 0 0 1 1 1 0 0 0 0 0 0 0 1 2 2 1 1 1 2 2
6 6 5 4 3 3 3 3 1 0 0 0 0 0 0 0 0 0 0 0 0 1 0 0 0 0 0 0 0 0 1 2 2 1 0 0 1 1

GEFSNE_con_prob3kmehi_264.txt.gz
EHI
19 17 15 13 12 12 14 16 15 11 9 12 17 23 26 19 12 14 16 10 4 1 0 0 0 0 0 0 0 0 0 0 0 0 1 2 2 2
27 24 21 19 17 16 16 18 18 15 11 12 15 19 22 18 13 14 15 10 4 2 1 0 0 0 0 0 0 0 0 0 0 0 0 1 1 1
32 32 29 27 24 22 21 21 21 19 15 13 14 15 18 19 16 15 13 9 6 3 1 0 0 0 0 0 0 0 0 0 0 0 0 0 0 0
37 36 34 30 28 26 25 23 21 20 18 16 16 16 18 21 21 17 12 9 6 3 1 0 0 0 0 0 0 0 0 0 0 0 0 0 0 0
41 39 35 32 30 26 22 20 18 19 19 18 18 18 19 21 22 17 12 9 5 2 1 0 0 0 0 0 0 0 0 0 0 0 0 0 0 0
40 39 36 32 28 21 16 15 16 17 17 17 17 18 19 19 19 15 10 8 6 4 3 2 1 0 0 0 0 0 0 0 0 0 0 0 0 0
39 38 33 26 21 17 13 11 13 14 14 14 15 16 19 19 17 12 8 6 7 7 5 4 3 2 1 1 0 0 0 0 0 0 0 0 0 0
39 36 28 20 16 14 11 8 9 10 11 12 13 15 18 19 15 9 6 6 8 9 7 6 5 4 3 2 1 0 0 0 0 0 0 0 0 0
38 34 27 20 17 15 13 10 7 7 7 10 12 13 15 16 13 7 5 6 8 9 8 6 6 6 5 4 1 0 0 0 0 0 0 0 0 0
33 32 29 24 18 16 16 14 10 8 6 7 8 9 8 9 7 5 4 4 6 7 8 7 6 5 5 4 2 0 0 0 0 0 0 0 0 0
29 29 28 24 17 15 17 17 14 11 7 5 4 3 2 2 2 2 2 3 3 5 6 7 6 6 6 5 2 0 0 0 0 0 0 0 0 0
26 25 22 18 13 12 15 17 15 11 7 5 3 1 1 1 1 1 2 3 3 4 6 8 8 8 8 7 3 1 0 0 0 0 0 0 0 0
23 21 17 12 8 8 11 13 11 9 6 5 3 3 2 2 2 2 3 4 5 5 6 8 9 10 10 9 5 3 1 1 0 0 0 0 0 0
19 18 13 8 4 4 6 6 5 5 5 5 3 3 3 3 4 4 5 6 7 6 6 7 8 9 9 9 7 4 3 2 1 1 1 0 0 0
14 12 8 3 2 3 2 1 1 3 6 6 4 2 1 2 4 5 5 6 6 6 5 6 7 7 6 7 7 6 4 3 3 2 2 1 0 0
9 7 5 2 3 4 2 1 1 3 5 5 3 1 0 0 2 4 4 4 4 4 4 4 5 4 3 4 6 7 6 4 3 3 2 1 0 0
7 6 6 5 6 6 5 3 3 4 4 3 1 0 0 0 1 2 3 2 1 1 2 3 3 2 2 2 3 5 5 4 3 1 1 1 0 0
7 8 8 8 9 9 8 6 4 3 3 2 0 0 0 0 0 1 1 1 0 0 0 1 1 1 1 1 1 2 4 4 3 1 0 0 0 0
7 8 9 9 10 10 9 7 5 4 3 2 0 0 0 0 0 0 0 0 0 0 0 0 0 0 0 0 0 0 1 2 3 2 1 1 0 0
7 7 8 9 9 10 9 7 6 5 4 2 0 0 0 0 0 0 0 0 0 0 0 0 0 0 0 0 0 0 0 1 2 3 3 2 1 0
6 6 7 7 8 9 8 7 6 6 4 1 0 0 0 0 0 0 0 0 0 0 0 0 0 0 0 0 0 0 0 0 1 2 2 2 1 1
6 6 6 7 7 7 6 5 5 6 4 1 0 0 0 0 0 0 0 0 0 0 0 0 0 0 0 0 0 0 0 0 0 1 1 1 1 1
6 6 6 7 7 6 5 4 5 5 3 1 0 0 0 0 0 0 0 0 0 0 0 0 0 0 0 0 0 0 0 0 0 0 0 0 0 1

GEFSNE_con_prob3kmehi_270.txt.gz
EHI
6 6 6 5 3 1 0 0 1 3 3 1 0 0 1 0 0 0 0 0 0 0 0 0 0 0 0 0 0 0 0 0 1 1 1 0 0 0
6 6 5 5 3 1 1 1 2 3 3 2 1 1 1 1 1 0 0 0 0 0 0 0 0 0 0 0 0 0 0 0 0 0 0 0 0 0
4 5 5 5 3 3 2 3 3 3 4 3 2 2 2 2 1 1 1 0 0 0 0 0 0 0 0 0 0 0 0 0 0 0 0 0 0 0
5 5 5 4 3 3 3 4 3 4 4 4 4 3 3 2 1 1 1 0 0 0 0 0 0 0 0 0 0 0 0 0 0 0 0 0 0 0
7 7 5 5 4 3 4 5 4 5 5 6 5 4 4 3 1 0 0 0 0 0 0 0 0 0 0 0 0 0 0 0 0 0 0 0 0 0
9 8 7 7 6 5 4 5 6 7 7 7 6 6 5 3 1 0 0 0 0 1 0 0 0 0 0 0 0 0 0 0 0 0 0 0 0 0
10 10 10 10 9 5 3 4 6 8 9 8 7 6 4 3 2 1 0 0 0 0 0 0 0 0 0 0 0 0 0 0 0 0 0 0 0 0
12 11 11 10 8 4 2 3 4 5 8 7 5 5 4 3 2 1 0 0 0 0 0 0 0 0 0 0 0 0 0 0 0 0 0 0 0 0
13 12 10 8 5 3 2 2 1 2 4 4 3 3 2 1 1 0 0 0 0 0 0 0 0 0 0 0 0 0 0 0 0 0 0 0 0 0
8 10 9 6 3 3 3 2 1 0 1 1 1 1 1 0 0 0 0 0 0 0 0 0 0 0 0 0 0 0 0 0 0 0 0 0 0 0
3 6 7 5 3 3 3 3 2 1 0 0 0 0 0 0 0 0 0 0 0 0 0 0 0 0 0 0 0 0 0 0 0 0 0 0 0 0
1 3 4 4 2 2 2 3 3 1 0 0 0 0 0 0 0 0 0 0 0 0 0 0 0 0 0 0 0 0 0 0 0 0 0 0 0 0
1 2 2 1 1 0 1 2 2 2 1 0 0 0 0 0 0 0 0 0 0 0 0 0 0 0 0 0 0 0 0 0 0 0 0 0 0 0
3 3 2 0 0 0 0 1 1 2 2 1 1 1 0 0 0 0 0 0 0 0 0 0 0 0 0 0 0 0 0 0 0 0 0 0 0 0
2 2 1 0 0 0 0 0 1 3 3 3 2 1 0 0 0 0 0 0 0 0 0 0 0 0 0 0 0 0 0 0 0 0 0 0 0 0
1 1 0 0 0 0 0 0 2 3 3 2 2 1 0 0 0 0 0 0 0 0 0 0 0 0 0 0 0 0 0 0 0 0 0 0 0 0
1 1 1 1 1 1 2 2 2 2 2 1 1 0 0 0 0 0 0 0 0 0 0 0 0 0 0 0 0 0 0 0 0 0 0 0 0 0
2 2 2 2 3 4 5 4 4 3 2 1 0 0 0 0 0 0 0 0 0 0 0 0 0 0 0 0 0 0 0 0 0 0 0 0 0 0
3 3 3 3 4 5 6 6 5 4 3 1 0 0 0 0 0 0 0 0 0 0 0 0 0 0 0 0 0 0 0 0 0 0 0 0 0 0
3 3 3 3 3 4 5 6 6 5 4 2 1 0 0 0 0 0 0 0 0 0 0 0 0 0 0 0 0 0 0 0 0 0 0 0 0 0
2 3 3 3 4 4 4 5 6 5 4 2 1 0 0 0 0 0 0 0 0 0 0 0 0 0 0 0 0 0 0 0 0 0 0 0 0 0
3 3 3 4 5 5 4 5 5 4 3 3 1 1 0 0 0 0 0 0 0 0 0 0 0 0 0 0 0 0 0 0 0 0 0 0 0 0
3 3 4 5 6 6 6 5 5 4 3 3 2 2 1 0 0 0 0 0 0 0 0 0 0 0 0 0 0 0 0 0 0 0 0 0 0 0